Weather History for Anderson, SC

Change the Weather History Date:

Monday, December 2, 2013

  Actual Average Record
Temperature  
Mean Temperature 46 °F -  
Max Temperature 59 °F 56 °F 76 °F (1991)
Min Temperature 33 °F 36 °F 18 °F (1960)
Degree Days  
Heating Degree Days 19    
Moisture  
Dew Point 40 °F    
Average Humidity 88    
Maximum Humidity 100    
Minimum Humidity 49    
Precipitation  
Precipitation 0.00 in - - ()
Sea Level Pressure  
Sea Level Pressure 29.91 in    
Wind  
Wind Speed 2 mph (WNW)    
Max Wind Speed 9 mph    
Max Gust Speed -    
Visibility 7 miles    
Events Fog , Rain    
Averages and records for this station are not official NWS values.
T = Trace of Precipitation, MM = Missing Value Source: NWS Daily Summary

Daily Weather History Graph

Daily Weather History Graph

Search for Another Location

Airport:

Trip Planner

Search our weather history database for the weather conditions in past years. The results will help you decide how hot, cold, wet, or windy it might be!

Date:

Astronomy

Dec. 02, 2013 Rise Set
Actual Time 7:20 AM EST 5:20 PM EST
Civil Twilight 6:52 AM EST 5:47 PM EST
Nautical Twilight 6:21 AM EST 6:19 PM EST
Astronomical Twilight 5:51 AM EST 6:49 PM EST
Moon 6:45 AM EST 5:20 PM EST
Length of Visible Light 10h 55m
Length of Day
9h 59m
Waning Crescent, 0% of the Moon is Illuminated
Dec 2
Waning Crescent
Dec 2
New
Dec 9
First Quarter
Dec 17
Full
Dec 25
Last Quarter

Hourly Weather History & Observations

Time (EST) Temp. Windchill Dew Point Humidity Pressure Visibility Wind Dir Wind Speed Gust Speed Precip Events Conditions
12:56 AM 41.0 °F - 37.9 °F 89% 30.00 in 10.0 mi Calm Calm - N/A   Clear
1:56 AM 39.0 °F - 37.9 °F 96% 29.98 in 9.0 mi Calm Calm - N/A   Partly Cloudy
2:56 AM 36.0 °F - 35.1 °F 97% 29.96 in 6.0 mi Calm Calm - N/A   Clear
3:56 AM 35.1 °F - 34.0 °F 96% 29.96 in 2.5 mi Calm Calm - N/A   Clear
4:06 AM 33.8 °F - 33.8 °F 100% 29.96 in 4.0 mi Calm Calm - N/A   Clear
4:14 AM 35.6 °F 31.7 °F 35.6 °F 100% 29.96 in 2.0 mi NNW 4.6 mph - N/A   Partly Cloudy
4:16 AM 35.6 °F 31.7 °F 35.6 °F 100% 29.96 in 1.0 mi NNW 4.6 mph - N/A   Mist
4:18 AM 35.6 °F 31.7 °F 35.6 °F 100% 29.96 in 0.5 mi NW 4.6 mph - N/A Fog Fog
4:27 AM 35.6 °F 32.8 °F 35.6 °F 100% 29.96 in 0.2 mi NNW 3.5 mph - N/A Fog Fog
4:37 AM 37.4 °F 32.8 °F 35.6 °F 93% 29.95 in 0.5 mi NNW 5.8 mph - N/A Fog Fog
4:47 AM 35.6 °F 31.7 °F 35.6 °F 100% 29.95 in 0.2 mi NW 4.6 mph - N/A Fog Fog
4:56 AM 36.0 °F 33.3 °F 36.0 °F 100% 29.96 in 0.2 mi WNW 3.5 mph - N/A Fog Fog
5:19 AM 33.8 °F - 33.8 °F 100% 29.95 in 0.2 mi Calm Calm - N/A Fog Fog
5:30 AM 33.8 °F - 33.8 °F 100% 29.95 in 0.8 mi Calm Calm - N/A   Mostly Cloudy
5:38 AM 35.6 °F - 35.6 °F 100% 29.94 in 0.8 mi Calm Calm - N/A   Overcast
5:45 AM 35.6 °F 32.8 °F 33.8 °F 93% 29.94 in 1.2 mi NE 3.5 mph - N/A   Overcast
5:53 AM 35.6 °F - 35.6 °F 100% 29.95 in 3.0 mi Calm Calm - N/A   Overcast
5:56 AM 36.0 °F - 36.0 °F 100% 29.95 in 4.0 mi Calm Calm - N/A   Overcast
6:56 AM 37.0 °F - 37.0 °F 100% 29.95 in 7.0 mi Calm Calm - N/A   Mostly Cloudy
7:56 AM 37.9 °F 35.5 °F 37.9 °F 100% 29.95 in 6.0 mi NE 3.5 mph - N/A   Scattered Clouds
8:56 AM 42.1 °F - 41.0 °F 96% 29.95 in 10.0 mi Calm Calm - N/A   Overcast
9:56 AM 46.0 °F - 42.1 °F 86% 29.94 in 10.0 mi Calm Calm - N/A   Overcast
10:56 AM 52.0 °F - 41.0 °F 66% 29.92 in 10.0 mi Calm Calm - N/A   Scattered Clouds
11:56 AM 55.9 °F - 37.0 °F 49% 29.90 in 10.0 mi Variable 4.6 mph - N/A   Overcast
12:56 PM 57.0 °F - 42.1 °F 57% 29.86 in 10.0 mi Variable 3.5 mph - N/A   Overcast
1:56 PM 59.0 °F - 44.1 °F 58% 29.84 in 10.0 mi SW 8.1 mph - N/A   Mostly Cloudy
2:03 PM 57.2 °F - 44.6 °F 63% 29.84 in 10.0 mi SW 8.1 mph - N/A   Mostly Cloudy
2:56 PM 57.9 °F - 45.0 °F 62% 29.83 in 10.0 mi SW 5.8 mph - N/A   Overcast
3:30 PM 57.2 °F - 46.4 °F 67% 29.83 in 10.0 mi West 9.2 mph - N/A   Overcast
3:56 PM 57.0 °F - 46.9 °F 69% 29.83 in 10.0 mi West 6.9 mph - N/A   Overcast
4:52 PM 55.4 °F - 46.4 °F 72% 29.83 in 10.0 mi SW 3.5 mph - N/A   Overcast
4:56 PM 55.9 °F - 46.9 °F 72% 29.83 in 10.0 mi SW 4.6 mph - N/A   Overcast
5:56 PM 52.0 °F - 46.9 °F 83% 29.84 in 10.0 mi SW 5.8 mph - N/A   Mostly Cloudy
6:56 PM 50.0 °F - 46.9 °F 89% 29.85 in 10.0 mi Calm Calm - N/A   Scattered Clouds
7:11 PM 48.2 °F - 46.4 °F 93% 29.85 in 10.0 mi Calm Calm - N/A   Mostly Cloudy
7:56 PM 48.0 °F - 46.0 °F 93% 29.86 in 10.0 mi Calm Calm - N/A   Scattered Clouds
8:56 PM 48.9 °F - 46.9 °F 93% 29.87 in 10.0 mi Calm Calm - N/A   Overcast
9:56 PM 50.0 °F - 46.9 °F 89% 29.87 in 10.0 mi Calm Calm - N/A   Overcast
10:56 PM 50.0 °F - 48.0 °F 93% 29.87 in 10.0 mi Calm Calm - N/A   Overcast
11:38 PM 50.0 °F - 48.2 °F 94% 29.89 in 10.0 mi Calm Calm - N/A   Overcast
11:56 PM 48.9 °F - 48.0 °F 97% 29.87 in 10.0 mi Calm Calm - 0.00 in Rain Light Rain